TimeEST,TemperatureF,Dew PointF,Humidity,Sea Level PressureIn,VisibilityMPH,Wind Direction,Wind SpeedMPH,Gust SpeedMPH,PrecipitationIn,Events,Conditions,WindDirDegrees,DateUTC
12:15 AM,37.4,35.6,93,30.27,0.2,Calm,Calm,-,N/A,Fog,Fog,0,2012-12-04 05:15:00
12:35 AM,37.4,35.6,93,30.27,0.2,NNE,3.5,-,N/A,Fog,Fog,30,2012-12-04 05:35:00
1:15 AM,35.6,35.6,100,30.26,0.5,Calm,Calm,-,N/A,Fog,Fog,0,2012-12-04 06:15:00
1:35 AM,35.6,35.6,100,30.27,0.5,NNE,3.5,-,N/A,Fog,Fog,20,2012-12-04 06:35:00
1:55 AM,35.6,33.8,93,30.27,0.2,Calm,Calm,-,N/A,Fog,Fog,0,2012-12-04 06:55:00
2:15 AM,35.6,33.8,93,30.27,0.5,Calm,Calm,-,N/A,Fog,Fog,0,2012-12-04 07:15:00
2:35 AM,35.6,33.8,93,30.27,0.2,Calm,Calm,-,N/A,Fog,Fog,0,2012-12-04 07:35:00
2:55 AM,35.6,33.8,93,30.28,0.2,Calm,Calm,-,N/A,Fog,Fog,0,2012-12-04 07:55:00
3:15 AM,35.6,35.6,100,30.27,0.5,Calm,Calm,-,N/A,Fog,Fog,0,2012-12-04 08:15:00
3:55 AM,33.8,33.8,100,30.27,0.2,NNE,3.5,-,N/A,Fog,Fog,20,2012-12-04 08:55:00
4:15 AM,33.8,32.0,93,30.27,0.2,Calm,Calm,-,N/A,Fog,Fog,0,2012-12-04 09:15:00
4:35 AM,33.8,32.0,93,30.27,0.2,Calm,Calm,-,N/A,Fog,Fog,0,2012-12-04 09:35:00
4:55 AM,32.0,32.0,100,30.27,0.2,Calm,Calm,-,N/A,Fog,Fog,0,2012-12-04 09:55:00
5:15 AM,33.8,32.0,93,30.27,0.2,NNE,3.5,-,N/A,Fog,Fog,30,2012-12-04 10:15:00
5:35 AM,33.8,33.8,100,30.27,0.2,Calm,Calm,-,N/A,Fog,Fog,0,2012-12-04 10:35:00
5:55 AM,33.8,32.0,93,30.27,0.5,Calm,Calm,-,N/A,Fog,Fog,0,2012-12-04 10:55:00
6:15 AM,32.0,32.0,100,30.27,0.2,Calm,Calm,-,N/A,Fog,Fog,0,2012-12-04 11:15:00
6:35 AM,32.0,32.0,100,30.28,0.5,Calm,Calm,-,N/A,Fog,Fog,0,2012-12-04 11:35:00
6:55 AM,32.0,32.0,100,30.28,0.2,Calm,Calm,-,N/A,Fog,Fog,0,2012-12-04 11:55:00
7:15 AM,32.0,32.0,100,30.28,0.2,Calm,Calm,-,N/A,Fog,Fog,0,2012-12-04 12:15:00
7:35 AM,32.0,32.0,100,30.28,0.5,Calm,Calm,-,N/A,Fog,Fog,0,2012-12-04 12:35:00
7:55 AM,32.0,32.0,100,30.28,0.5,Calm,Calm,-,N/A,Fog,Fog,0,2012-12-04 12:55:00
8:15 AM,33.8,32.0,93,30.29,0.2,Calm,Calm,-,N/A,Fog,Fog,0,2012-12-04 13:15:00
8:35 AM,33.8,32.0,93,30.29,0.2,NNE,4.6,-,N/A,Fog,Fog,30,2012-12-04 13:35:00
8:55 AM,33.8,33.8,100,30.29,1.5,Calm,Calm,-,N/A,,Mostly Cloudy,0,2012-12-04 13:55:00
9:15 AM,35.6,35.6,100,30.29,0.8,Calm,Calm,-,N/A,,Mostly Cloudy,0,2012-12-04 14:15:00
9:35 AM,37.4,35.6,93,30.29,0.2,Calm,Calm,-,N/A,Fog,Fog,0,2012-12-04 14:35:00
9:55 AM,39.2,37.4,93,30.29,7.0,Calm,Calm,-,N/A,,Scattered Clouds,0,2012-12-04 14:55:00
10:15 AM,41.0,41.0,100,30.29,10.0,Calm,Calm,-,N/A,,Clear,0,2012-12-04 15:15:00
10:55 AM,46.4,44.6,93,30.27,10.0,Calm,Calm,-,N/A,,Clear,0,2012-12-04 15:55:00
11:15 AM,50.0,44.6,82,30.26,10.0,Calm,Calm,-,N/A,,Clear,0,2012-12-04 16:15:00
11:35 AM,53.6,44.6,72,30.25,10.0,SW,5.8,-,N/A,,Clear,230,2012-12-04 16:35:00
11:55 AM,55.4,42.8,63,30.24,10.0,SW,6.9,-,N/A,,Clear,230,2012-12-04 16:55:00
12:15 PM,57.2,42.8,59,30.23,10.0,SW,8.1,-,N/A,,Clear,220,2012-12-04 17:15:00
12:35 PM,57.2,42.8,59,30.22,10.0,WSW,9.2,-,N/A,,Clear,240,2012-12-04 17:35:00
12:55 PM,59.0,42.8,55,30.21,10.0,SW,9.2,-,N/A,,Clear,220,2012-12-04 17:55:00
1:15 PM,59.0,42.8,55,30.20,10.0,WSW,6.9,-,N/A,,Scattered Clouds,250,2012-12-04 18:15:00
1:35 PM,60.8,42.8,52,30.19,10.0,SW,8.1,-,N/A,,Mostly Cloudy,230,2012-12-04 18:35:00
1:55 PM,60.8,42.8,52,30.18,10.0,SW,10.4,-,N/A,,Scattered Clouds,220,2012-12-04 18:55:00
2:15 PM,60.8,42.8,52,30.18,10.0,SW,10.4,-,N/A,,Clear,220,2012-12-04 19:15:00
2:35 PM,60.8,42.8,52,30.18,10.0,SW,8.1,-,N/A,,Clear,230,2012-12-04 19:35:00
2:55 PM,60.8,41.0,48,30.17,10.0,SW,10.4,-,N/A,,Mostly Cloudy,230,2012-12-04 19:55:00
3:15 PM,60.8,42.8,52,30.17,10.0,SW,10.4,-,N/A,,Overcast,220,2012-12-04 20:15:00
3:35 PM,60.8,42.8,52,30.17,10.0,SW,8.1,-,N/A,,Overcast,230,2012-12-04 20:35:00
3:55 PM,60.8,42.8,52,30.16,10.0,SW,9.2,-,N/A,,Overcast,220,2012-12-04 20:55:00
4:15 PM,59.0,42.8,55,30.17,10.0,SSW,5.8,-,N/A,,Mostly Cloudy,210,2012-12-04 21:15:00
4:35 PM,59.0,41.0,51,30.16,10.0,SSW,5.8,-,N/A,,Mostly Cloudy,200,2012-12-04 21:35:00
4:55 PM,55.4,41.0,58,30.16,10.0,SSW,5.8,-,N/A,,Scattered Clouds,210,2012-12-04 21:55:00
5:15 PM,53.6,41.0,62,30.17,10.0,SSW,5.8,-,N/A,,Clear,210,2012-12-04 22:15:00
5:35 PM,53.6,41.0,62,30.17,10.0,SW,6.9,-,N/A,,Clear,220,2012-12-04 22:35:00
5:55 PM,53.6,41.0,62,30.17,10.0,SW,6.9,-,N/A,,Clear,220,2012-12-04 22:55:00
6:15 PM,51.8,41.0,67,30.17,10.0,SSW,4.6,-,N/A,,Mostly Cloudy,200,2012-12-04 23:15:00
6:35 PM,53.6,41.0,62,30.17,10.0,South,5.8,-,N/A,,Overcast,190,2012-12-04 23:35:00
6:55 PM,53.6,41.0,62,30.17,10.0,SW,6.9,-,N/A,,Overcast,220,2012-12-04 23:55:00
7:15 PM,53.6,42.8,67,30.16,10.0,SSW,5.8,-,N/A,,Overcast,210,2012-12-05 00:15:00
7:35 PM,53.6,42.8,67,30.15,10.0,SW,5.8,-,N/A,,Overcast,220,2012-12-05 00:35:00
7:55 PM,55.4,42.8,63,30.16,10.0,WSW,6.9,-,N/A,,Overcast,240,2012-12-05 00:55:00
8:15 PM,55.4,42.8,63,30.15,10.0,WSW,6.9,-,N/A,,Overcast,240,2012-12-05 01:15:00
8:35 PM,55.4,42.8,63,30.16,10.0,SW,9.2,-,N/A,,Overcast,230,2012-12-05 01:35:00
8:55 PM,55.4,41.0,58,30.17,10.0,SW,8.1,-,N/A,,Overcast,230,2012-12-05 01:55:00
9:15 PM,55.4,42.8,63,30.16,10.0,SSW,5.8,-,N/A,,Overcast,210,2012-12-05 02:15:00
9:35 PM,53.6,42.8,67,30.15,10.0,SSW,6.9,-,N/A,,Overcast,210,2012-12-05 02:35:00
9:55 PM,53.6,42.8,67,30.15,10.0,SW,6.9,-,N/A,,Overcast,220,2012-12-05 02:55:00
10:15 PM,53.6,41.0,62,30.14,10.0,SW,6.9,-,N/A,,Overcast,230,2012-12-05 03:15:00
10:35 PM,53.6,42.8,67,30.14,10.0,SSW,5.8,-,N/A,,Overcast,210,2012-12-05 03:35:00
10:55 PM,53.6,42.8,67,30.13,10.0,SSW,5.8,-,N/A,,Overcast,210,2012-12-05 03:55:00
11:15 PM,53.6,42.8,67,30.14,10.0,SSW,4.6,-,N/A,,Overcast,210,2012-12-05 04:15:00
11:35 PM,53.6,41.0,62,30.13,10.0,SSW,4.6,-,N/A,,Overcast,210,2012-12-05 04:35:00
11:55 PM,53.6,41.0,62,30.13,10.0,SW,4.6,-,N/A,,Overcast,220,2012-12-05 04:55:00